Voltar ao catálogo

COSMOS 1853

AtivoNavegaçãoLEO
NORAD 18114·PAYLOAD·🇷🇺 Russia

Lançado Jun 16, 1987 de Plesetsk Cosmodrome

Loading…

Próximas Passagens (próximas 24 horas)

TLE

AtualizadoSource: Space-Track

Época: Sep 14, 2026, 13:36 UTC

1 18114U 87051B   26257.56679787 -.00000010  00000-0  40647-4 0  9990
2 18114  74.0021 290.3851 0005829  45.3970  28.2982 12.47020547786656

Acompanhe COSMOS 1853 em tempo real com AllMySat

Download on the App Store